CDT,Max TemperatureF,Mean TemperatureF,Min TemperatureF,Max Dew PointF,MeanDew PointF,Min DewpointF,Max Humidity, Mean Humidity, Min Humidity, Max Sea Level PressureIn, Mean Sea Level PressureIn, Min Sea Level PressureIn, Max VisibilityMiles, Mean VisibilityMiles, Min VisibilityMiles, Max Wind SpeedMPH, Mean Wind SpeedMPH, Max Gust SpeedMPH,PrecipitationIn, CloudCover, Events, WindDirDegrees
2011-3-1,74,62,49,47,39,34,77,50,23,30.26,30.19,30.14,10,10,10,23,10,31,0.00,0,,16
2011-3-2,78,62,46,57,42,36,73,49,25,30.22,30.15,30.08,10,10,10,10,4,16,0.00,0,,63
2011-3-3,79,67,54,62,55,52,93,68,42,30.14,30.09,30.01,10,6,1,13,4,17,0.00,4,,80
2011-3-4,80,74,67,66,64,61,87,71,54,30.02,29.99,29.95,10,8,2,20,7,25,0.06,6,Rain,144
2011-3-5,72,62,51,68,60,44,93,86,78,30.11,29.96,29.90,10,6,0,28,11,35,1.80,7,Fog-Rain,301
2011-3-6,59,51,43,43,40,36,77,64,51,30.23,30.15,30.09,10,10,10,20,10,24,0.00,4,,17
2011-3-7,64,53,41,51,43,37,86,67,48,30.10,30.04,29.96,10,9,8,13,5,17,0.00,4,,107
2011-3-8,74,67,59,68,63,52,84,80,75,29.96,29.88,29.81,10,8,4,24,12,37,0.09,8,Rain,158
2011-3-9,78,67,56,68,61,40,90,68,46,30.22,29.95,29.83,10,8,5,18,11,25,0.02,5,Rain,276
2011-3-10,66,57,47,39,34,29,66,47,27,30.34,30.28,30.22,10,10,10,18,8,24,0.00,0,,335
2011-3-11,70,57,43,47,39,34,82,56,29,30.32,30.26,30.18,10,10,10,13,4,18,0.00,0,,173
2011-3-12,74,61,47,57,51,45,93,70,46,30.25,30.18,30.14,10,9,2,17,6,25,0.00,4,,173
2011-3-13,77,66,54,61,55,52,93,71,49,30.23,30.17,30.12,10,6,0,16,5,21,0.00,2,Fog,175
2011-3-14,76,67,58,63,59,53,93,74,54,30.16,30.12,30.06,10,8,3,17,7,24,0.08,4,Rain,228
2011-3-15,72,60,48,52,43,37,80,55,29,30.24,30.18,30.14,10,10,10,13,5,17,0.00,1,,358
2011-3-16,78,64,50,58,47,43,84,59,33,30.30,30.24,30.20,10,10,9,10,4,13,0.00,0,,135
2011-3-17,79,70,61,65,61,57,93,74,54,30.29,30.24,30.20,10,8,4,18,7,24,0.00,5,,174
2011-3-18,82,73,64,65,63,59,87,68,49,30.27,30.22,30.19,10,9,6,15,8,21,0.00,5,,195
2011-3-19,82,71,59,63,60,54,93,66,39,30.28,30.22,30.16,10,7,0,13,4,18,0.00,3,Fog,198
2011-3-20,82,69,55,62,57,52,93,65,36,30.27,30.23,30.20,10,5,0,16,5,24,0.00,2,Fog,179
2011-3-21,82,74,65,64,62,59,93,71,49,30.28,30.23,30.17,10,7,0,21,7,29,0.00,3,Fog,169
2011-3-22,82,74,65,66,63,60,93,72,51,30.16,30.07,29.96,10,5,0,22,9,29,0.00,3,Fog,182
2011-3-23,83,75,67,65,63,60,93,70,47,29.97,29.92,29.88,10,8,5,22,11,29,0.00,4,,210
2011-3-24,83,72,60,66,52,31,93,55,16,30.05,29.97,29.93,10,8,3,16,5,22,0.00,3,,329
2011-3-25,82,70,58,67,61,51,84,69,54,29.96,29.90,29.83,10,10,5,18,5,22,0.00,6,Rain,172
2011-3-26,87,79,71,70,67,62,90,68,45,29.83,29.79,29.72,10,10,9,21,10,29,0.00,5,,197
2011-3-27,85,74,62,70,65,55,90,67,44,29.85,29.80,29.75,10,8,3,13,5,17,0.00,4,,61
2011-3-28,77,66,55,56,52,48,83,66,49,29.97,29.92,29.86,10,9,5,18,9,22,0.00,4,,19
2011-3-29,87,74,60,72,63,50,78,70,61,29.96,29.90,29.83,10,10,8,14,6,20,0.00,6,Rain-Thunderstorm,87
2011-3-30,71,62,52,67,57,45,90,79,67,29.93,29.87,29.79,10,9,2,18,12,25,0.61,8,Rain-Thunderstorm,7
2011-3-31,69,60,50,55,47,45,89,67,45,29.91,29.85,29.77,10,10,7,14,6,18,0.00,3,,357